Regional Weather Roundup
Issued by NWS

Home | Current Version | Previous Version | Text Only | Print | Product List | Glossary Off
Versions: 1 2 3 4 5 6 7 8 9 10 11 12 13 14 15 16 17 18 19 20 21 22 23 24 25 26 27 28 29 30 31 32 33 34 35 36 37 38 39 40 41 42 43 44 45 46 47 48 49 50

000
ASUS43 KMPX 281601
RWRMN
WEATHER ROUNDUP FOR MINNESOTA
NATIONAL WEATHER SERVICE TWIN CITIES/CHANHASSEN MN
1000 AM CST WED JAN 28 2015


NOTE: "FAIR" INDICATES FEW OR NO CLOUDS BELOW 12,000 FEET WITH NO
SIGNIFICANT WEATHER AND/OR OBSTRUCTIONS TO VISIBILITY. N/A MEANS
CURRENT SKY AND/OR WEATHER CONDITIONS ARE NOT AVAILABLE.

MNZ060>063-068>070-281700-
   Twin Cities Metro

CITY           SKY/WX    TMP DP  RH WIND       PRES   REMARKS
TWIN CITIES    CLOUDY    28  24  85 SE13G22   29.97F WCI  17
ST PAUL        CLOUDY    27  24  89 SE15G22   29.99F FOG     WCI  15
CRYSTAL        CLOUDY    30  25  81 SE10G22   29.94F HAZE    WCI  21
BLAINE         CLOUDY    30  28  93 SE16G23   29.96F FOG     WCI  19
LAKEVILLE      CLOUDY    27  25  93 SE15      29.96S FOG     WCI  15
EDEN PRAIRIE   CLOUDY    29  25  85 SE16      29.93F FOG     WCI  17
SOUTH ST PAUL  CLOUDY    28  25  87 SE12      29.98S FOG     WCI  18
LAKE ELMO      CLOUDY    28  27  93 SE12      29.99F FOG     WCI  18
$$
MNZ001>005-007-008-013>017-022>024-027-028-281700-
   Northwest Minnesota

CITY           SKY/WX    TMP DP  RH WIND       PRES   REMARKS
BEMIDJI        CLOUDY    30  29  96 S10       29.83R FOG     WCI  21
HALLOCK        CLOUDY    34  32  93 SE6       29.80S FOG     WCI  29
ROSEAU         HAZE      32  27  80 SE7       29.81F VSB 1   WCI  26
WARROAD        FOG       30  27  86 E5        29.83F VSB 1/2 WCI  25
THIEF RVR FALL CLOUDY    34  30  86 SE6       29.80F WCI  29
CROOKSTON      CLOUDY    34  32  93 S8        29.80F FOG     WCI  27
FOSSTON        CLOUDY    32  28  86 SE8       29.80F FOG     WCI  25
DETROIT LAKES  CLOUDY    32  32 100 SE14G20   29.79F FOG     WCI  22
MOORHEAD       CLOUDY    34  34 100 S18       29.79F FOG     WCI  23
PARK RAPIDS    CLOUDY    31  30  96 S16       29.83S FOG     WCI  20
MAHNOMEN       CLOUDY    32  31  94 S12G17    29.78F FOG     WCI  23
$$
MNZ006-009>011-018-025>026-281700-
   North Central Minnesota

CITY           SKY/WX    TMP DP  RH WIND       PRES   REMARKS
BAUDETTE       FOG       29  28  96 SE6       29.84S VSB 1   WCI  23
FLAG ISLAND    FOG       28  27  93 SE6       29.84F VSB 1   WCI  22
INTL FALLS     CLOUDY    27  24  89 SE8       29.88F FOG     WCI  19
WASKISH        CLOUDY    30  28  93 SE6       29.85F FOG     WCI  24
BIG FORK       CLOUDY    28  27  93 SE9       29.87F FOG     WCI  20
LONGVILLE      CLOUDY    28  27  93 SE8       29.86S FOG     WCI  20
GRAND RAPIDS   CLOUDY    27  23  86 SE8       29.88S WCI  18
CRANE LAKE     CLOUDY    25  21  86 SE3       29.94F
ORR            CLOUDY    23  19  86 S9        29.88F WCI  13
COOK           CLOUDY    23  21  93 SE7       29.92S WCI  15
WALKER         CLOUDY    29  28  96 SE9G17    29.84S FOG     WCI  21
$$
MNZ012-019>021-037-281700-
   Northeast Minnesota

CITY           SKY/WX    TMP DP  RH WIND       PRES   REMARKS
DULUTH         CLOUDY    24  21  88 SE8       29.94F FOG     WCI  15
ELY            CLOUDY    25  21  86 S6        29.92F WCI  18
HIBBING        CLOUDY    24  20  84 SE7       29.92F WCI  16
EVELETH        CLOUDY    25  23  93 SE8       29.93F FOG     WCI  16
DULUTH HARBOR  CLOUDY    28  23  80 CALM      30.01S
TWO HARBORS    CLOUDY    28  23  80 S6        29.96F WCI  22
SILVER BAY     CLOUDY    27  23  86 SE3       29.97F
GRAND MARAIS     N/A     31  25  78 SE6       30.04F WCI  25
G MARAIS ARPRT   N/A     25  21  86 SE8       29.98S FOG     WCI  16
$$
MNZ029>031-032-039>041-046>048-054>057-064-281700-
   West Central Minnesota

CITY           SKY/WX    TMP DP  RH WIND       PRES   REMARKS
FERGUS FALLS   CLOUDY    34  30  86 S16       29.82F FOG     WCI  23
WHEATON        CLOUDY    30  28  93 SE15      29.81S FOG     WCI  19
MORRIS         CLOUDY    34  30  86 SE22      29.79F FOG     WCI  22
ALEXANDRIA     CLOUDY    31  29  92 SE15      29.84F FOG     WCI  20
ELBOW LAKE     CLOUDY    32  31  95 SE20      29.80F FOG     WCI  20
WADENA         CLOUDY    30  28  93 S12       29.84R FOG     WCI  21
GLENWOOD       CLOUDY    30  30 100 SE17      29.84F FOG     WCI  18
APPLETON       CLOUDY    34  30  86 SE14      29.81F FOG     WCI  24
BENSON         CLOUDY    34  30  86 S13       29.83F FOG     WCI  25
ORTONVILLE     CLOUDY    32  30  93 SE15      29.78F FOG     WCI  22
MADISON        CLOUDY    36  34  93 SE18      29.80F FOG
WILLMAR        CLOUDY    34  30  86 SE14G22   29.87F FOG     WCI  24
$$
MNZ033>034-036-042>043-049>051-058-059-281700-
   Central Minnesota

CITY           SKY/WX    TMP DP  RH WIND       PRES   REMARKS
ST CLOUD       CLOUDY    30  27  88 SE16      29.91F FOG     WCI  19
SAUK CENTRE    CLOUDY    30  30  98 SE17G24   29.86F FOG     WCI  18
PAYNESVILLE    CLOUDY    28  28  99 E14G20    29.88F FOG     WCI  17
AITKIN         CLOUDY    30  25  80 SE13      29.88F HAZE    WCI  20
PINE RIVER     CLOUDY    28  28 100 S10       29.90S FOG     WCI  19
BRAINERD       CLOUDY    29  27  92 SE13G21   29.88F FOG     WCI  19
STAPLES        CLOUDY    28  28 100 S9        29.86S FOG     WCI  20
LONG PRAIRIE   CLOUDY    30  30 100 SE13      29.85F FOG     WCI  20
LITTLE FALLS   CLOUDY    30  28  93 SE8G17    29.89F FOG     WCI  23
LITCHFIELD     CLOUDY    30  30 100 SE10G18   29.90S FOG     WCI  21
BUFFALO        CLOUDY    30  27  90 SE10      29.95R FOG     WCI  21
MAPLE LAKE     CLOUDY    31  30  96 SE12G17   29.93S FOG     WCI  22
$$
MNZ037-044-045-052-053-281700-
   East Central Minnesota

CITY           SKY/WX    TMP DP  RH WIND       PRES   REMARKS
PRINCETON      CLOUDY    30  27  86 SE9       29.94S FOG     WCI  22
MORA           CLOUDY    27  23  86 SE8       29.96F WCI  18
CAMBRIDGE      CLOUDY    28  21  74 SE9       29.94S HAZE    WCI  20
RUSH CITY      CLOUDY    27  24  87 SE10      29.96F WCI  17
MOOSE LAKE     CLOUDY    27  23  86 S5        29.92F FOG     WCI  21
HINCKLEY       CLOUDY    28  27  93 SE14G20   29.95F WCI  17
CLOQUET        CLOUDY    25  21  86 SE5       29.94S FOG     WCI  19
MCGREGOR       CLOUDY    28  27  93 SE10      29.91F WCI  19
$$
MNZ071>073-080-081-089-090-097-098-281700-
   Southwest Minnesota

CITY           SKY/WX    TMP DP  RH WIND       PRES   REMARKS
MONTEVIDEO     CLOUDY    34  32  93 S10G16    29.85S FOG     WCI  26
GRANITE FALLS  CLOUDY    32  31  94 SE16      29.85F FOG     WCI  21
CANBY          CLOUDY    33  32  95 E7        29.80S FOG     WCI  27
MARSHALL       CLOUDY    34  28  80 S17       29.82S WCI  23
REDWOOD FALLS  CLOUDY    33  30  88 SE22      29.85F FOG     WCI  21
OLIVIA         CLOUDY    30  30 100 SE16      29.86S FOG     WCI  19
PIPESTONE      PTSUNNY   34  30  86 S13       29.76S FOG     WCI  25
WINDOM         CLOUDY    32  30  93 SE18G28   29.82S FOG     WCI  20
WORTHINGTON    CLOUDY    30  28  93 S17G24    29.81F WCI  18
JACKSON        CLOUDY    32  30  93 S21       29.85S FOG     WCI  20
TRACY          CLOUDY    33  32  94 S13G18    29.82S FOG     WCI  24
SLAYTON        CLOUDY    32  31  96 SE22      29.79R FOG     WCI  19
$$
MNZ065>067-074>077-082>085-091>093-281700-
   South Central Minnesota

CITY           SKY/WX    TMP DP  RH WIND       PRES   REMARKS
MANKATO        CLOUDY    30  25  80 S18G25    29.91F WCI  18
NEW ULM        CLOUDY    30  30 100 SE14      29.88F FOG     WCI  20
ST JAMES       CLOUDY    32  30  93 SE24      29.87F FOG     WCI  19
FAIRMONT       CLOUDY    30  27  86 SE23      29.86F WCI  17
GLENCOE        CLOUDY    32  31  95 SE13      29.91F FOG     WCI  22
FARIBAULT      CLOUDY    28  27  93 SE16      29.95F FOG     WCI  17
OWATONNA       CLOUDY    27  25  93 SE20G28   29.93F WCI  13
WASECA         CLOUDY    30  28  93 SE17G24   29.94F FOG     WCI  18
ALBERT LEA     FOG       28  28 100 SE16      29.93F VSB 1   WCI  17
$$
MNZ078>079-086>088-094>096-281700-
   Southeast Minnesota

CITY           SKY/WX    TMP DP  RH WIND       PRES   REMARKS
ROCHESTER      FOG       25  23  92 S18G28    29.99S VSB 1/2 WCI  11
RED WING       CLOUDY    27  25  93 S14G21    30.01F FOG     WCI  15
STANTON        CLOUDY    28  25  86 S14G20    29.97S WCI  17
DODGE CENTER   FOG       27  27 100 S20       29.97S VSB 3/4 WCI  13
WINONA         CLOUDY    30  27  86 S8        30.07F FOG     WCI  23
AUSTIN         FOG       27  25  93 SE15G21   29.96F VSB 1/4 WCI  15
PRESTON        FOG       24  23  96 SE13      30.01F VSB 1/2 WCI  12
$$
ABBREVIATIONS USED IN REMARKS
   TC - TEMPERATURES IN CELSIUS
  WCI - WIND CHILL INDEX
   HX - HEAT INDEX
  VSB - VISIBILITY
$$


USA.gov is the U.S. government's official web portal to all federal, state and local government web resources and services.